Iron Mountain, MI

5:14 AM CDT on June 24, 2017 (GMT -0500)
Ford

Weather History for KIMT - December, 2012

Change the Weather History Date:

Thursday, December 6, 2012

  Actual Average Record
Temperature  
Mean Temperature 34 °F -  
Max Temperature 39 °F 30 °F 51 °F (1960)
Min Temperature 28 °F 15 °F -11 °F (1955)
Degree Days  
Heating Degree Days 32    
Moisture  
Dew Point 29 °F    
Average Humidity 81    
Maximum Humidity 93    
Minimum Humidity 70    
Precipitation  
Precipitation 0.00 in - - ()
Sea Level Pressure  
Sea Level Pressure 29.90 in    
Wind  
Wind Speed 12 mph (SSW)    
Max Wind Speed 17 mph    
Max Gust Speed 24 mph    
Visibility 9 miles    
Events Rain , Snow    
Averages and records for this station are not official NWS values.
T = Trace of Precipitation, MM = Missing Value Source: NWS Daily Summary

Daily Weather History Graph

Daily Weather History Graph

Search for Another Location

Airport or City:

Trip Planner

Search our weather history database for the weather conditions in past years. The results will help you decide how hot, cold, wet, or windy it might be!

Date:

Astronomy

Dec. 06, 2012 Rise Set
Actual Time 7:19 AM CST 4:08 PM CST
Civil Twilight 6:45 AM CST 4:42 PM CST
Nautical Twilight 6:07 AM CST 5:19 PM CST
Astronomical Twilight 5:31 AM CST 5:55 PM CST
Moon No Moon Rise 11:53 AM CST (12/6)
Length of Visible Light 9h 56m
Length of Day
8h 48m
Waning Gibbous, 49% of the Moon is Illuminated
Dec 6
Waning Gibbous
Dec 13
New
Dec 19
First Quarter
Dec 28
Full
Jan 4
Last Quarter

Hourly Weather History & Observations

Time (CST) Temp. Windchill Dew Point Humidity Pressure Visibility Wind Dir Wind Speed Gust Speed Precip Events Conditions
12:54 AM 28.9 °F 18.2 °F 23.0 °F 78% 30.13 in 10.0 mi South 13.8 mph 21.9 mph N/A   Overcast
1:54 AM 30.0 °F 21.1 °F 24.1 °F 79% 30.12 in 10.0 mi South 10.4 mph 18.4 mph 0.00 in   Overcast
2:54 AM 30.0 °F 19.1 °F 25.0 °F 82% 30.08 in 10.0 mi South 15.0 mph 20.7 mph N/A   Overcast
3:29 AM 30.2 °F 19.3 °F 26.6 °F 86% 30.01 in 8.0 mi SSE 15.0 mph 21.9 mph 0.00 in Rain Light Freezing Rain
3:54 AM 30.9 °F 21.2 °F 27.0 °F 85% 30.03 in 9.0 mi SSE 12.7 mph 20.7 mph 0.00 in Rain Light Freezing Rain
4:26 AM 30.2 °F 20.2 °F 26.6 °F 86% 29.96 in 10.0 mi SSE 12.7 mph 19.6 mph 0.00 in   Overcast
4:54 AM 30.9 °F 22.8 °F 27.0 °F 85% 30.01 in 10.0 mi South 9.2 mph 18.4 mph 0.00 in   Overcast
5:12 AM 30.2 °F 19.8 °F 28.4 °F 93% 29.96 in 10.0 mi South 13.8 mph 18.4 mph N/A   Overcast
5:54 AM 32.0 °F 22.1 °F 28.0 °F 85% 30.00 in 10.0 mi South 13.8 mph 20.7 mph N/A   Overcast
6:03 AM 32.0 °F 23.0 °F 28.4 °F 87% 29.94 in 10.0 mi South 11.5 mph 19.6 mph N/A   Overcast
6:54 AM 32.0 °F 22.1 °F 28.0 °F 85% 29.94 in 10.0 mi SSE 13.8 mph 19.6 mph N/A   Overcast
7:22 AM 33.8 °F 24.8 °F 28.4 °F 81% 29.89 in 10.0 mi South 12.7 mph 18.4 mph N/A   Overcast
7:54 AM 33.1 °F 26.1 °F 30.0 °F 89% 29.95 in 10.0 mi SSW 8.1 mph 18.4 mph 0.00 in Rain Light Rain
8:54 AM 33.1 °F 23.4 °F 28.9 °F 85% 29.93 in 9.0 mi South 13.8 mph 20.7 mph 0.00 in   Overcast
9:18 AM 33.8 °F 23.2 °F 28.4 °F 81% 29.87 in 8.0 mi South 17.3 mph 24.2 mph N/A   Overcast
9:54 AM 34.0 °F 25.0 °F 28.9 °F 82% 29.90 in 4.0 mi South 12.7 mph 24.2 mph 0.00 in Snow Light Snow
10:54 AM 34.0 °F 26.0 °F 30.0 °F 85% 29.85 in 3.0 mi South 10.4 mph - 0.00 in Snow Light Snow
11:54 AM 35.1 °F 27.4 °F 30.9 °F 85% 29.83 in 10.0 mi South 10.4 mph - 0.00 in   Overcast
12:54 PM 36.0 °F 29.0 °F 30.0 °F 79% 29.81 in 10.0 mi South 9.2 mph - N/A   Overcast
1:54 PM 37.0 °F 31.6 °F 30.0 °F 76% 29.78 in 10.0 mi South 6.9 mph - N/A   Overcast
2:54 PM 37.9 °F 32.7 °F 30.9 °F 76% 29.78 in 10.0 mi South 6.9 mph - N/A   Overcast
3:54 PM 37.9 °F 33.5 °F 30.9 °F 76% 29.79 in 10.0 mi SSW 5.8 mph - N/A   Overcast
4:54 PM 39.0 °F 34.0 °F 33.1 °F 79% 29.79 in 10.0 mi WSW 6.9 mph - N/A   Overcast
5:14 PM 39.2 °F 34.2 °F 33.8 °F 81% 29.75 in 10.0 mi SSW 6.9 mph - N/A   Overcast
5:54 PM 39.0 °F 35.7 °F 33.1 °F 79% 29.79 in 10.0 mi WSW 4.6 mph - N/A   Overcast
6:54 PM 39.9 °F 34.5 °F 33.1 °F 77% 29.80 in 10.0 mi WSW 8.1 mph - N/A   Overcast
7:54 PM 39.0 °F 32.8 °F 33.1 °F 79% 29.82 in 10.0 mi WNW 9.2 mph - N/A   Overcast
8:54 PM 37.9 °F 30.5 °F 30.0 °F 73% 29.84 in 10.0 mi WNW 11.5 mph 16.1 mph N/A   Overcast
9:54 PM 37.0 °F 30.4 °F 28.0 °F 70% 29.84 in 10.0 mi WNW 9.2 mph 16.1 mph N/A   Overcast
10:54 PM 36.0 °F 29.0 °F 28.0 °F 73% 29.86 in 10.0 mi NW 9.2 mph - N/A   Overcast
11:33 PM 35.6 °F 30.7 °F 26.6 °F 70% 29.81 in 10.0 mi WNW 5.8 mph - N/A   Scattered Clouds
11:54 PM 34.0 °F 28.8 °F 27.0 °F 75% 29.86 in 10.0 mi WNW 5.8 mph - N/A   Clear